Wind_Speed
20 20 19 20 20 21 22 23 23 24 24 23 21 20 21 23 21 9 6 9 6 14 13 15 17 21 17 18 5 2 5 6 4 14 4 11 8 4 6 12 17 10 15 16 19
21 21 21 20 21 22 22 23 24 25 25 22 20 18 18 20 17 12 19 11 10 11 10 11 13 12 6 13 5 4 2 10 13 12 8 11 13 8 5 8 16 18 19 23 20
22 22 22 21 22 23 23 25 25 28 24 19 17 15 15 16 4 8 17 16 16 15 11 14 19 7 8 2 4 5 5 10 19 17 2 13 14 10 8 15 19 21 17 13 16
22 22 23 22 22 23 24 26 28 26 21 17 15 12 12 4 2 3 16 16 15 13 4 10 8 2 3 5 3 3 16 7 15 17 6 11 14 11 10 12 19 18 15 12 9
23 24 24 23 24 24 26 27 30 23 21 15 12 9 4 3 8 7 14 16 12 11 6 7 11 3 14 11 14 8 10 13 7 17 3 11 12 13 13 18 20 18 15 13 11
25 25 26 25 25 26 27 31 26 21 17 12 8 4 1 5 14 6 13 13 11 11 7 12 7 12 13 12 8 11 11 11 13 6 5 4 4 9 13 16 18 17 13 10 11
26 26 27 27 27 28 28 31 21 18 13 8 4 1 5 14 9 7 12 17 15 15 9 21 21 7 6 7 9 6 7 10 5 4 3 2 5 6 15 16 16 14 11 8 6
27 28 29 29 29 29 32 25 19 11 8 3 1 2 7 12 8 13 13 13 13 15 20 26 24 13 7 6 4 3 5 5 8 12 7 14 4 2 13 15 13 13 14 11 7
29 29 30 31 31 30 34 22 12 5 4 1 1 3 9 7 14 9 15 16 16 17 21 21 9 9 10 2 2 5 3 13 18 8 12 10 22 9 10 12 8 10 13 12 8
31 31 32 33 31 35 30 17 6 5 5 3 10 4 8 9 12 18 15 18 10 8 7 8 6 4 4 4 5 5 7 5 14 23 15 19 20 6 9 10 11 8 8 12 11
32 32 34 35 31 36 25 5 1 1 7 9 8 6 2 19 13 13 18 10 7 6 7 10 4 8 19 15 7 9 14 17 20 19 16 12 19 13 18 19 13 10 10 11 10
32 33 34 35 33 20 11 3 7 7 7 14 19 16 28 8 4 4 17 8 8 8 8 7 4 9 18 8 6 10 16 17 15 21 9 16 15 13 16 9 5 15 14 12 12
32 33 35 39 23 6 12 19 8 14 3 8 14 9 10 2 6 11 7 8 8 9 9 10 13 19 14 11 10 8 11 5 6 5 3 6 5 7 10 8 6 1 19 14 19
31 32 33 40 8 23 10 11 12 13 3 6 11 8 7 5 7 12 17 10 7 12 12 9 8 10 17 12 20 6 20 15 11 5 2 4 2 6 11 23 16 13 17 18 18
30 31 32 29 17 9 12 17 16 9 2 11 11 9 9 10 2 10 23 8 13 13 7 15 10 11 11 6 24 14 13 14 16 7 4 3 6 9 12 16 19 17 11 20 19
31 31 33 14 17 19 23 24 18 1 6 6 9 10 8 11 10 6 8 8 8 10 13 11 7 4 8 3 4 7 5 10 7 8 4 5 7 6 7 13 8 11 16 18 19
32 32 34 19 7 14 15 8 1 4 4 10 8 11 11 10 8 10 9 8 7 3 7 11 10 12 3 3 5 3 2 5 6 4 5 6 4 8 18 20 21 18 5 17 20
33 35 23 22 20 12 12 3 5 10 9 9 10 11 10 10 10 10 9 7 10 10 5 6 7 8 6 7 6 4 2 5 7 3 2 4 4 6 15 12 10 9 8 16 17
35 24 14 24 9 9 2 4 7 7 4 4 16 11 10 9 8 7 9 9 10 10 7 2 6 7 8 6 9 5 3 5 10 7 5 4 6 2 4 10 22 5 10 10 18
27 11 13 17 18 11 3 6 8 10 17 14 8 10 9 10 10 8 10 10 10 11 11 10 6 8 13 7 5 5 2 6 4 5 3 4 5 7 1 14 28 13 10 10 14
6 4 8 18 22 3 6 7 7 17 18 8 8 3 10 10 11 9 10 9 13 13 11 7 3 11 5 3 3 5 2 3 6 6 6 4 6 9 14 22 19 14 14 15 15
6 4 9 20 4 4 9 6 6 19 22 11 6 7 8 5 10 10 9 9 12 12 6 9 1 3 7 6 8 4 6 3 5 5 5 6 2 10 16 17 19 13 15 16 17
3 5 14 12 5 8 9 17 19 20 20 5 5 6 13 10 6 8 8 6 8 6 2 3 1 3 10 7 2 5 3 2 3 3 3 3 3 5 2 8 9 10 13 7 15
4 3 4 6 7 12 12 14 16 18 20 15 6 7 11 11 9 7 7 5 11 5 7 6 2 4 7 6 3 6 7 6 5 2 4 1 4 4 2 10 7 16 22 21 16
3 5 6 4 7 12 14 14 17 18 7 6 9 12 9 8 8 3 7 9 8 3 4 4 2 7 10 8 7 0 6 5 6 6 4 6 5 6 5 10 9 13 18 18 18
3 4 6 11 12 15 11 17 18 20 9 7 8 16 11 7 8 6 7 7 6 4 3 2 3 3 8 8 8 6 9 9 3 4 4 3 6 8 10 8 7 7 13 14 18
12 10 5 7 9 10 9 15 17 15 10 14 12 11 8 11 8 9 7 10 11 10 7 4 4 1 6 7 6 4 7 7 2 3 4 2 5 1 5 5 6 6 6 11 17
Wind_Direction
354 351 347 344 342 339 338 336 335 333 329 324 322 323 325 325 318 302 244 225 278 267 285 301 294 280 261 27 311 112 95 186 196 91 154 100 89 11 289 131 145 154 139 147 153
353 351 346 341 340 338 336 334 332 330 325 320 317 318 324 328 323 262 236 248 256 274 294 297 311 359 109 160 259 90 351 87 97 127 119 123 131 182 123 134 122 129 126 147 144
353 350 345 341 338 336 334 332 331 327 322 317 311 316 325 331 292 240 234 224 248 267 273 303 304 348 66 4 337 22 12 86 56 355 83 137 148 159 139 117 124 129 137 147 144
353 348 345 341 337 335 332 332 330 326 320 314 308 316 324 343 197 316 199 211 232 254 282 295 280 260 114 200 170 325 358 35 124 195 259 153 119 93 123 132 129 130 145 144 168
352 349 345 342 336 334 332 332 328 324 318 311 306 320 337 237 254 280 194 198 222 242 235 265 281 107 82 24 327 50 357 2 74 180 96 91 100 111 108 119 125 138 154 163 178
350 348 346 343 338 334 331 330 326 322 317 306 302 315 353 260 225 217 206 207 207 222 265 255 266 96 79 36 50 315 297 53 322 67 14 78 86 127 125 128 136 149 164 179 185
347 346 345 342 339 333 329 329 322 319 315 302 291 110 263 244 327 182 195 213 211 231 261 273 274 102 102 175 264 300 332 356 224 233 323 271 48 117 142 141 147 163 161 181 189
346 345 343 341 337 332 327 325 318 310 312 307 203 137 252 247 254 215 186 224 235 238 259 273 296 108 94 92 52 9 22 5 327 321 337 352 282 207 147 149 164 169 160 173 158
346 343 340 338 336 332 326 324 315 293 307 297 170 203 271 202 207 234 211 207 225 242 254 273 300 93 117 138 54 6 312 17 334 332 336 40 302 277 170 156 180 170 168 171 161
346 342 338 336 336 333 324 323 295 276 282 270 266 289 257 240 201 225 230 209 209 227 256 258 60 78 355 97 181 163 94 101 280 283 171 205 244 233 19 167 182 173 159 148 149
345 340 337 334 333 333 328 343 34 276 240 217 198 231 200 223 193 207 207 221 253 229 225 251 108 134 236 242 174 162 147 168 237 257 203 214 113 84 291 295 187 172 165 157 154
343 339 336 333 331 328 311 264 18 314 295 245 254 264 266 239 165 199 204 179 220 236 226 272 172 228 207 235 153 224 194 211 228 245 130 109 130 184 195 262 254 178 171 161 154
340 339 337 333 332 348 303 272 331 314 273 266 219 245 228 3 233 197 209 202 218 238 237 217 177 201 212 213 137 237 245 277 230 100 41 146 64 182 226 315 266 199 173 170 166
336 337 338 336 337 332 296 0 343 322 301 255 182 235 209 197 254 249 183 181 230 232 238 235 190 216 262 200 152 63 265 253 53 79 81 21 239 321 352 325 316 311 183 179 165
331 332 331 340 298 304 312 335 323 304 279 186 177 190 186 193 282 234 176 197 224 236 184 250 183 206 246 166 151 219 228 88 63 43 116 15 70 300 332 293 289 286 256 180 166
325 326 327 341 306 290 315 309 299 287 242 144 153 184 172 214 259 184 150 201 242 257 275 259 222 167 217 93 268 96 98 50 31 47 7 153 134 237 228 242 275 275 269 180 165
321 318 315 292 245 307 332 316 214 234 248 148 165 167 188 198 240 168 170 193 219 238 292 299 286 170 113 173 261 174 176 58 326 23 241 189 83 234 222 232 233 261 205 154 158
320 318 309 278 278 300 300 320 246 245 256 164 156 174 202 184 230 182 172 191 233 244 253 230 302 233 177 166 196 333 60 159 182 180 266 123 221 251 228 227 287 149 129 136 150
324 324 276 264 271 207 282 225 216 230 271 188 160 170 200 207 186 231 180 195 217 219 226 286 259 334 293 204 154 203 244 241 91 43 91 282 298 317 231 9 339 167 128 145 148
324 296 260 233 200 187 219 252 248 308 323 322 143 153 183 213 197 200 181 209 225 210 215 261 309 245 253 166 164 139 202 17 357 157 202 330 357 269 128 156 218 229 151 132 132
303 279 274 172 162 192 223 242 298 280 289 333 0 293 190 189 208 220 206 226 201 237 201 229 206 291 7 119 124 8 358 225 117 135 156 144 270 246 231 192 199 206 150 142 140
294 276 174 154 177 215 239 253 281 287 296 289 341 320 291 244 188 205 199 216 207 201 220 202 64 297 258 160 135 191 235 223 133 255 206 162 198 252 246 146 194 171 151 147 149
284 282 281 200 220 233 250 251 259 269 277 278 278 288 311 303 203 163 226 28 134 85 29 22 55 338 328 346 168 180 213 300 352 65 285 96 215 276 358 45 35 138 136 111 144
280 280 232 226 228 258 251 245 244 261 264 268 300 276 294 303 316 184 167 78 76 103 58 50 347 173 217 237 271 159 200 202 153 64 283 351 222 318 42 113 96 102 121 152 224
245 261 350 296 229 235 257 278 278 249 227 290 302 286 264 285 308 241 131 110 98 108 62 93 271 298 294 293 325 311 223 187 181 213 150 244 151 219 174 151 170 164 174 177 180
289 347 331 291 280 281 254 251 264 275 218 216 238 275 262 273 235 292 131 138 150 114 140 263 251 291 298 317 335 349 341 335 282 337 229 126 296 178 172 164 173 174 129 167 174
9 332 302 293 292 281 243 242 254 263 203 231 225 257 264 268 280 273 284 156 155 145 172 205 181 215 276 308 312 330 274 269 195 313 309 16 339 40 146 91 69 84 117 165 190
Height
793 790 786 782 779 776 772 769 766 763 760 757 753 750 748 744 740 738 735 730 729 728 726 726 725 724 725 748 730 729 783 802 772 767 765 741 752 743 744 750 753 755 765 769 773
793 789 785 782 778 774 771 768 764 761 758 755 752 749 747 744 740 735 724 727 728 727 727 728 726 726 732 743 736 751 768 756 738 742 750 748 748 751 750 751 759 763 768 772 775
792 788 785 781 777 773 769 766 762 758 755 753 750 748 747 745 743 723 720 723 726 727 728 729 726 730 739 734 739 745 760 736 751 742 730 744 751 746 752 765 761 769 771 773 776
793 789 784 780 775 771 767 763 760 755 752 750 747 747 746 746 754 716 717 721 725 726 730 729 726 739 744 752 738 759 740 734 747 744 743 745 738 748 748 755 754 761 768 772 776
792 788 783 778 774 769 765 760 756 752 749 747 746 746 746 747 734 717 718 721 724 724 728 730 731 737 755 761 748 754 751 746 748 746 734 731 747 750 754 749 754 760 766 770 773
791 787 782 777 772 766 762 758 753 750 748 745 744 745 747 752 717 717 718 721 724 725 726 723 726 729 747 764 770 763 754 757 755 741 742 746 751 747 754 751 757 761 766 768 770
789 785 780 775 770 764 759 754 750 747 746 744 744 745 746 733 717 716 717 718 723 724 724 720 718 725 736 780 753 757 768 758 760 752 751 746 764 761 751 754 760 762 765 766 768
788 783 778 773 768 762 756 751 747 746 745 744 744 746 742 717 716 719 718 720 722 724 723 718 717 728 744 752 762 776 781 803 766 761 756 770 793 761 752 759 765 763 765 766 769
786 781 776 771 765 759 752 748 745 745 745 745 746 746 738 713 715 715 716 719 720 721 721 718 717 738 747 772 790 787 813 800 787 773 783 800 810 765 752 760 769 764 765 766 769
785 779 773 767 762 756 748 745 744 745 744 746 745 750 725 717 711 713 714 717 718 719 724 725 739 760 764 784 819 819 816 816 808 765 795 799 792 764 770 758 763 766 764 768 770
784 777 771 764 759 754 746 744 746 748 744 736 728 721 707 706 707 711 713 715 716 723 751 733 764 779 766 764 772 784 795 796 774 751 778 783 784 782 783 783 757 763 761 768 771
782 776 769 761 755 752 749 747 739 739 745 722 719 716 708 704 713 708 710 725 730 750 736 750 768 748 744 741 765 771 787 785 758 751 757 770 788 783 786 781 763 755 758 759 768
781 775 767 758 751 749 749 742 739 736 745 720 710 714 706 705 714 715 709 718 734 746 743 758 748 730 739 753 770 775 781 771 765 743 756 763 791 788 778 764 759 748 745 749 753
780 774 768 758 752 750 745 740 739 736 766 732 717 709 702 704 720 697 701 716 728 746 736 739 726 731 733 739 753 804 750 751 755 769 799 764 827 799 781 772 760 754 747 743 748
779 774 770 770 763 757 747 742 739 738 797 706 708 691 695 714 703 704 696 709 734 732 729 740 734 735 741 736 744 758 745 759 759 776 784 798 828 819 786 780 763 747 745 735 739
776 773 767 766 762 749 746 742 740 774 785 715 701 710 716 711 708 698 704 702 705 725 720 722 699 716 721 709 713 715 734 759 774 783 815 796 813 826 803 770 760 743 733 729 735
772 767 765 763 755 749 746 743 776 785 700 724 722 710 717 724 718 715 723 734 748 757 758 731 722 711 701 728 714 724 750 815 836 840 834 793 803 792 767 758 750 746 729 725 732
768 762 754 750 749 750 749 761 784 729 719 693 705 712 729 718 719 715 727 745 729 735 752 766 769 721 703 720 739 736 750 805 835 837 820 791 808 783 740 736 741 722 724 726 733
764 756 750 741 745 749 756 778 754 719 697 700 702 724 731 717 718 721 727 737 726 724 758 755 752 700 702 701 716 737 764 738 789 798 817 798 773 744 739 750 747 730 727 731 733
764 756 739 734 742 748 762 765 730 702 695 690 714 712 737 725 728 727 731 714 720 709 708 731 764 716 703 694 702 719 720 777 784 828 831 818 802 791 766 771 765 740 731 732 730
764 755 724 730 740 748 765 747 722 701 696 703 708 712 710 719 718 725 725 707 700 704 703 714 737 741 712 721 732 740 753 746 770 797 831 834 825 754 747 741 749 730 725 731 735
764 762 728 730 749 746 751 735 718 709 697 695 695 704 707 703 713 718 718 705 681 691 715 707 726 759 740 704 699 712 734 742 789 783 782 789 796 727 725 712 711 717 720 723 727
767 751 727 726 754 748 734 727 719 715 706 698 703 697 693 705 715 703 702 682 677 694 718 705 739 776 763 734 710 726 719 721 738 754 774 792 781 717 713 713 716 719 720 727 727
770 755 730 724 725 734 734 728 725 701 702 694 697 695 704 709 694 703 700 690 687 698 700 702 731 753 783 754 728 738 727 723 736 776 773 766 755 729 717 720 715 725 729 732 735
767 751 740 746 731 728 726 724 722 716 696 694 708 705 708 719 711 702 695 701 695 701 699 715 748 740 735 724 719 721 723 722 737 736 759 753 745 732 720 720 713 711 717 724 728
770 760 745 743 732 731 725 724 720 707 701 709 716 703 698 713 707 712 697 708 713 705 711 712 750 735 747 724 722 731 722 720 717 721 727 723 733 710 706 702 709 708 711 720 719
766 760 754 741 731 728 715 713 706 693 688 690 696 701 702 695 680 679 677 682 693 712 723 727 743 752 765 735 730 754 732 725 714 711 721 744 735 702 708 710 714 712 705 710 708